Simultaneous Nadir Overpasses (SNOs) Predictions

Prediction of SNOs between GOES-17 and AQUA Satellite Orbit:

Table of predicted SNOs for the next 14.0 days since TLE Epoch: 6/10/2023
Index Date Time (GOES-17) GOES-17 Lat,Lon AQUA Lat,Lon Distance(km) Time Diff (sec)
1 06/10/2023 08:53:52 0.01,-104.72 0.25,-105.75 118.43 80
2 06/12/2023 08:37:07 0.01,-104.72 -0.51,-102.32 272.83 80
3 06/12/2023 20:58:01 -0.01,-104.71 -0.61,-107.38 304.51 80
4 06/14/2023 20:46:35 -0.01,-104.71 0.14,-103.94 87.36 80
5 06/15/2023 09:07:21 0.01,-104.73 0.92,-108.97 482.46 80
6 06/16/2023 20:32:29 -0.01,-104.71 0.91,-100.50 479.29 80
7 06/17/2023 08:53:14 0.01,-104.73 0.20,-105.53 90.67 80
8 06/19/2023 08:36:27 0.02,-104.73 -0.55,-102.08 301.26 80
9 06/19/2023 20:57:21 -0.02,-104.71 -0.53,-107.14 276.56 80
10 06/21/2023 20:45:53 -0.02,-104.72 0.19,-103.70 115.94 80
11 06/22/2023 09:06:37 0.01,-104.74 0.89,-108.72 453.04 80
